Time,TemperatureF,DewpointF,PressureIn,WindDirection,WindDirectionDegrees,WindSpeedMPH,WindSpeedGustMPH,Humidity,HourlyPrecipIn,Conditions,Clouds,dailyrainin,SolarRadiationWatts/m^2,SoftwareType,DateUTC
2013-09-18 00:01:00,63.0,41.0,-100.00,SE,140,11.0,15.0,45,0.00,,,0.00,0.000000,,2013-09-18 07:01:00,
2013-09-18 00:02:00,61.0,35.0,-100.00,SSW,213,4.0,17.0,37,0.00,,,0.00,0.000000,,2013-09-18 07:02:00,
2013-09-18 00:22:00,61.0,35.0,-100.00,SSW,213,4.0,17.0,37,0.00,,,0.00,0.000000,,2013-09-18 07:22:00,
2013-09-18 00:32:00,61.0,35.0,-100.00,SSW,213,4.0,17.0,37,0.00,,,0.00,0.000000,,2013-09-18 07:32:00,
2013-09-18 00:42:00,61.0,35.0,-100.00,SSW,213,4.0,17.0,37,0.00,,,0.00,0.000000,,2013-09-18 07:42:00,
2013-09-18 00:52:00,61.0,35.0,-100.00,SSW,213,4.0,17.0,37,0.00,,,0.00,0.000000,,2013-09-18 07:52:00,
2013-09-18 01:02:00,56.0,34.0,-100.00,ENE,57,3.0,7.0,44,0.00,,,0.00,0.000000,,2013-09-18 08:02:00,
2013-09-18 01:23:00,56.0,34.0,-100.00,ENE,57,3.0,7.0,44,0.00,,,0.00,0.000000,,2013-09-18 08:23:00,
2013-09-18 01:32:00,56.0,34.0,-100.00,ENE,57,3.0,7.0,44,0.00,,,0.00,0.000000,,2013-09-18 08:32:00,
2013-09-18 01:42:00,56.0,34.0,-100.00,ENE,57,3.0,7.0,44,0.00,,,0.00,0.000000,,2013-09-18 08:42:00,
2013-09-18 01:52:00,56.0,34.0,-100.00,ENE,57,3.0,7.0,44,0.00,,,0.00,0.000000,,2013-09-18 08:52:00,
2013-09-18 02:02:00,52.0,34.0,-100.00,ESE,110,3.0,6.0,50,0.00,,,0.00,0.000000,,2013-09-18 09:02:00,
2013-09-18 02:53:00,52.0,34.0,-100.00,ESE,110,3.0,6.0,50,0.00,,,0.00,0.000000,,2013-09-18 09:53:00,
2013-09-18 03:02:00,61.0,29.0,-100.00,SE,138,9.0,15.0,30,-99.99,,,0.00,0.000000,,2013-09-18 10:02:00,
2013-09-18 03:23:00,61.0,29.0,-100.00,SE,138,9.0,15.0,30,-99.99,,,0.00,0.000000,,2013-09-18 10:23:00,
2013-09-18 03:33:00,61.0,29.0,-100.00,SE,138,9.0,15.0,30,-99.99,,,0.00,0.000000,,2013-09-18 10:33:00,
2013-09-18 03:43:00,61.0,29.0,-100.00,SE,138,9.0,15.0,30,-99.99,,,0.00,0.000000,,2013-09-18 10:43:00,
2013-09-18 03:53:00,61.0,29.0,-100.00,SE,138,9.0,15.0,30,-99.99,,,0.00,0.000000,,2013-09-18 10:53:00,
2013-09-18 04:22:00,62.0,24.0,-100.00,SE,131,13.0,17.0,23,0.00,,,0.00,0.000000,,2013-09-18 11:22:00,
2013-09-18 04:33:00,62.0,24.0,-100.00,SE,131,13.0,17.0,23,0.00,,,0.00,0.000000,,2013-09-18 11:33:00,
2013-09-18 04:42:00,62.0,24.0,-100.00,SE,131,13.0,17.0,23,0.00,,,0.00,0.000000,,2013-09-18 11:42:00,
2013-09-18 04:52:00,62.0,24.0,-100.00,SE,131,13.0,17.0,23,0.00,,,0.00,0.000000,,2013-09-18 11:52:00,
2013-09-18 05:01:00,62.0,24.0,-100.00,SE,131,13.0,17.0,23,0.00,,,0.00,0.000000,,2013-09-18 12:01:00,
2013-09-18 05:43:00,62.0,24.0,-100.00,South,169,5.0,15.0,23,0.00,,,0.00,0.000000,,2013-09-18 12:43:00,
2013-09-18 05:52:00,62.0,24.0,-100.00,South,169,5.0,15.0,23,0.00,,,0.00,0.000000,,2013-09-18 12:52:00,
2013-09-18 06:01:00,62.0,24.0,-100.00,South,169,5.0,15.0,23,0.00,,,0.00,0.000000,,2013-09-18 13:01:00,
2013-09-18 20:02:00,63.0,29.0,-100.00,ESE,105,3.0,5.0,27,0.00,,,0.00,0.000000,,2013-09-19 03:02:00,
2013-09-18 21:01:00,63.0,29.0,-100.00,ESE,105,3.0,5.0,27,0.00,,,0.00,0.000000,,2013-09-19 04:01:00,
2013-09-18 21:02:00,63.0,26.0,-100.00,ESE,111,3.0,5.0,24,0.00,,,0.00,0.000000,,2013-09-19 04:02:00,
2013-09-18 21:25:00,63.0,26.0,-100.00,ESE,111,3.0,5.0,24,0.00,,,0.00,0.000000,,2013-09-19 04:25:00,
2013-09-18 21:34:00,63.0,26.0,-100.00,ESE,111,3.0,5.0,24,0.00,,,0.00,0.000000,,2013-09-19 04:34:00,
2013-09-18 21:44:00,63.0,26.0,-100.00,ESE,111,3.0,5.0,24,0.00,,,0.00,0.000000,,2013-09-19 04:44:00,
2013-09-18 21:54:00,63.0,26.0,-100.00,ESE,111,3.0,5.0,24,0.00,,,0.00,0.000000,,2013-09-19 04:54:00,
2013-09-18 22:02:00,62.0,26.0,-100.00,ESE,103,2.0,4.0,25,0.00,,,0.00,0.000000,,2013-09-19 05:02:00,
2013-09-18 22:23:00,62.0,26.0,-100.00,ESE,103,2.0,4.0,25,0.00,,,0.00,0.000000,,2013-09-19 05:23:00,
2013-09-18 22:34:00,62.0,26.0,-100.00,ESE,103,2.0,4.0,25,0.00,,,0.00,0.000000,,2013-09-19 05:34:00,
2013-09-18 22:43:00,62.0,26.0,-100.00,ESE,103,2.0,4.0,25,0.00,,,0.00,0.000000,,2013-09-19 05:43:00,
2013-09-18 22:52:00,62.0,26.0,-100.00,ESE,103,2.0,4.0,25,0.00,,,0.00,0.000000,,2013-09-19 05:52:00,
2013-09-18 23:02:00,61.0,26.0,-100.00,ESE,104,4.0,5.0,26,0.00,,,0.00,0.000000,,2013-09-19 06:02:00,
2013-09-18 23:22:00,61.0,26.0,-100.00,ESE,104,4.0,5.0,26,0.00,,,0.00,0.000000,,2013-09-19 06:22:00,
2013-09-18 23:32:00,61.0,26.0,-100.00,ESE,104,4.0,5.0,26,0.00,,,0.00,0.000000,,2013-09-19 06:32:00,
2013-09-18 23:43:00,61.0,26.0,-100.00,ESE,104,4.0,5.0,26,0.00,,,0.00,0.000000,,2013-09-19 06:43:00,
2013-09-18 23:52:00,61.0,26.0,-100.00,ESE,104,4.0,5.0,26,0.00,,,0.00,0.000000,,2013-09-19 06:52:00,